Temp
9 9 9 8 9 9 10 10 11 12 12 13 14 14 15 16 16 16 16 18 19 20 20 18 19 20 20 22 23 24 26 27 29 29 31 32 32 31 30 29 30 30 29 29 29
8 8 8 8 8 8 9 9 9 9 10 11 12 12 14 15 16 15 17 17 18 19 20 20 20 20 21 23 23 25 26 27 30 31 31 32 32 32 31 31 30 30 29 30 29
7 8 8 8 9 9 8 8 8 9 9 9 9 11 12 13 13 19 18 19 18 18 19 20 21 22 23 24 25 26 26 28 29 30 30 31 30 30 31 30 30 30 29 29 29
7 7 7 7 8 8 8 8 8 8 8 8 9 9 11 12 19 16 17 18 16 16 17 17 21 23 25 26 26 27 27 28 28 29 29 30 30 30 30 29 29 29 28 28 28
6 6 6 6 7 7 7 8 8 8 8 8 8 9 9 12 14 16 16 15 15 17 17 18 21 23 25 26 26 28 28 28 28 28 28 29 29 29 30 29 28 28 28 27 28
5 5 5 5 6 6 6 7 7 7 8 8 8 8 6 11 14 14 14 14 15 17 19 19 21 23 25 26 27 27 28 28 28 28 28 29 29 29 29 28 28 28 28 28 28
4 4 4 5 5 6 6 7 7 7 8 8 8 6 7 10 12 13 13 14 15 16 17 20 20 23 24 26 26 26 27 28 28 28 29 28 28 28 28 28 28 28 28 28 28
4 4 5 5 5 6 6 7 7 7 8 8 7 5 7 11 12 13 13 14 15 15 15 17 20 21 22 23 25 26 27 25 28 29 28 28 26 28 28 28 28 29 29 29 28
3 3 3 4 5 6 7 8 8 8 7 7 6 6 10 12 11 12 12 13 14 15 16 16 17 19 22 23 23 25 24 26 27 29 29 28 27 29 28 28 28 28 28 28 28
3 4 4 5 5 5 6 7 8 8 7 6 7 9 11 12 14 12 12 13 14 15 16 16 17 20 21 23 23 23 24 25 25 28 29 28 28 29 29 28 28 28 28 28 28
4 4 4 5 5 6 7 8 9 10 9 11 13 12 13 14 13 13 13 13 14 15 17 18 19 20 21 22 24 25 26 26 27 29 28 27 28 29 29 28 28 28 28 28 27
4 4 5 5 5 6 6 8 8 7 8 9 11 11 12 12 12 12 13 13 15 16 17 19 19 21 23 24 24 24 24 25 26 28 27 27 26 28 28 28 27 27 27 27 27
4 4 4 5 5 6 7 7 6 7 8 10 12 13 13 13 13 13 13 14 15 16 17 18 21 22 22 23 24 24 24 24 25 26 27 26 25 26 27 27 27 27 27 27 27
4 4 4 5 6 6 8 6 7 7 8 13 14 13 12 12 14 13 13 14 16 16 18 18 21 22 22 22 24 23 25 25 25 24 24 26 25 26 27 27 28 28 28 28 27
4 5 5 4 3 6 6 6 6 7 8 14 14 12 13 14 15 15 14 14 14 16 17 18 19 20 22 23 24 24 26 25 25 24 24 24 24 25 27 27 28 29 28 28 27
5 5 6 6 5 5 6 6 6 6 9 13 14 13 14 15 15 15 15 14 14 15 17 18 20 21 22 23 25 25 25 25 25 24 23 24 24 25 27 28 29 29 29 29 28
5 5 5 4 5 5 5 6 5 8 12 10 11 12 12 14 15 16 15 15 14 14 14 16 18 21 22 22 24 25 23 22 21 22 22 25 25 26 28 29 29 29 29 28 27
5 5 4 4 4 4 3 5 6 11 11 13 13 13 12 14 14 15 14 14 15 15 16 16 16 18 21 23 23 24 24 23 21 22 24 26 24 27 29 29 28 28 28 27 26
5 6 4 4 4 4 4 5 6 10 11 10 11 10 12 12 13 14 14 14 13 11 10 16 17 21 21 23 24 23 24 25 25 26 26 27 27 28 29 29 28 29 29 28 25
3 7 5 5 4 4 6 7 10 10 10 10 9 10 10 11 12 13 13 10 11 12 11 12 16 20 22 22 23 24 26 23 25 23 23 26 26 27 27 28 29 29 29 27 24
5 8 6 5 4 5 6 10 11 10 10 9 9 10 11 9 10 11 11 12 10 11 12 13 12 17 20 21 22 24 25 24 25 25 24 24 26 28 27 28 29 30 29 26 24
7 11 7 6 5 7 8 10 9 11 10 11 8 10 9 9 10 12 9 12 9 9 9 14 11 13 18 22 24 25 24 24 24 23 26 26 26 29 28 28 29 29 27 25 24
7 9 7 7 6 6 8 10 10 10 11 11 9 11 11 9 8 10 9 5 7 7 6 8 11 11 15 20 23 23 24 25 24 26 24 25 26 29 28 28 28 29 27 25 24
7 10 10 8 7 6 7 8 9 10 10 10 10 10 8 10 10 6 7 7 5 5 5 5 9 12 15 20 22 22 24 25 24 24 25 25 27 27 28 28 27 27 26 25 24
8 10 7 8 7 6 7 8 8 7 8 9 10 10 9 10 11 9 8 10 8 7 5 6 10 14 12 17 23 23 24 25 24 25 25 26 26 28 28 28 27 26 26 25 24
5 5 5 6 7 7 8 7 8 8 7 8 8 10 10 9 10 9 10 11 8 9 5 7 11 14 11 14 19 23 24 25 25 25 26 26 26 29 29 27 26 26 26 25 25
4 3 3 6 8 7 8 7 7 7 8 8 8 9 9 10 10 10 10 11 10 9 9 8 11 13 10 14 20 20 24 25 25 26 26 25 26 26 26 25 24 24 26 26 25
Height
1525 1523 1521 1519 1516 1515 1513 1513 1509 1505 1505 1504 1503 1502 1504 1504 1505 1504 1505 1507 1508 1510 1510 1513 1514 1516 1517 1515 1513 1511 1505 1497 1487 1481 1475 1470 1468 1473 1475 1481 1480 1481 1481 1483 1482
1525 1523 1521 1518 1516 1513 1512 1508 1506 1504 1504 1501 1500 1499 1500 1499 1499 1496 1502 1499 1501 1504 1506 1509 1511 1511 1511 1507 1506 1505 1494 1488 1479 1472 1471 1467 1466 1468 1471 1471 1476 1477 1477 1477 1476
1523 1522 1520 1517 1515 1512 1509 1507 1504 1502 1501 1499 1498 1497 1496 1497 1496 1489 1488 1489 1492 1495 1499 1504 1506 1505 1502 1498 1495 1494 1485 1482 1476 1472 1471 1468 1468 1469 1468 1468 1473 1472 1474 1475 1475
1522 1520 1518 1516 1513 1510 1507 1505 1502 1500 1498 1496 1495 1495 1495 1495 1490 1480 1484 1484 1487 1488 1491 1495 1499 1495 1491 1487 1488 1484 1478 1479 1476 1474 1472 1467 1464 1462 1464 1467 1472 1470 1473 1472 1472
1521 1518 1516 1513 1510 1508 1505 1503 1500 1497 1494 1492 1492 1491 1492 1492 1483 1485 1484 1486 1485 1487 1487 1488 1489 1485 1478 1480 1481 1469 1470 1473 1471 1471 1469 1464 1460 1461 1458 1465 1467 1467 1468 1468 1465
1520 1517 1514 1511 1508 1506 1503 1500 1498 1496 1495 1494 1490 1489 1492 1486 1482 1482 1483 1483 1483 1484 1483 1484 1479 1478 1473 1471 1470 1467 1465 1464 1465 1465 1463 1460 1455 1457 1457 1462 1461 1460 1460 1461 1458
1519 1516 1513 1510 1506 1503 1500 1498 1495 1493 1491 1489 1488 1487 1485 1477 1476 1478 1479 1479 1478 1480 1479 1478 1477 1475 1470 1465 1466 1463 1459 1456 1452 1456 1453 1458 1451 1447 1453 1455 1452 1452 1451 1452 1450
1520 1516 1512 1508 1504 1500 1497 1494 1491 1488 1486 1484 1483 1484 1475 1473 1472 1471 1473 1472 1472 1474 1475 1475 1474 1471 1469 1467 1461 1458 1456 1454 1441 1446 1447 1453 1443 1443 1449 1448 1445 1440 1441 1442 1442
1518 1514 1510 1506 1502 1499 1495 1491 1486 1482 1480 1479 1480 1482 1470 1465 1466 1465 1465 1465 1466 1467 1469 1472 1472 1468 1466 1464 1462 1450 1448 1439 1439 1437 1438 1439 1434 1434 1439 1440 1437 1438 1435 1436 1437
1516 1512 1508 1504 1500 1495 1490 1486 1483 1480 1478 1479 1479 1482 1465 1463 1461 1463 1463 1463 1462 1463 1463 1464 1467 1464 1460 1450 1439 1438 1439 1440 1436 1429 1426 1426 1423 1420 1423 1430 1431 1431 1427 1426 1428
1515 1510 1506 1502 1498 1493 1487 1484 1483 1478 1476 1470 1466 1464 1456 1459 1459 1459 1460 1460 1458 1458 1450 1454 1459 1441 1416 1434 1430 1431 1430 1426 1420 1417 1422 1423 1419 1414 1415 1423 1423 1421 1418 1416 1422
1514 1509 1504 1500 1495 1490 1488 1488 1486 1486 1474 1466 1460 1455 1454 1456 1454 1453 1457 1457 1454 1447 1449 1446 1431 1399 1434 1429 1431 1433 1431 1424 1418 1415 1417 1418 1420 1414 1413 1413 1415 1413 1413 1414 1415
1512 1507 1503 1498 1494 1490 1491 1488 1486 1484 1475 1456 1447 1444 1445 1448 1444 1444 1447 1447 1445 1438 1433 1430 1395 1432 1422 1425 1424 1422 1425 1425 1421 1416 1413 1420 1417 1410 1409 1409 1410 1409 1407 1405 1405
1510 1505 1500 1496 1495 1492 1487 1487 1485 1483 1469 1433 1435 1439 1442 1443 1439 1438 1438 1439 1437 1432 1427 1421 1419 1412 1415 1414 1416 1417 1414 1419 1422 1426 1431 1415 1414 1401 1398 1396 1394 1393 1394 1392 1394
1508 1502 1497 1494 1493 1492 1491 1487 1485 1484 1459 1429 1432 1438 1437 1437 1431 1427 1431 1434 1431 1426 1428 1403 1408 1407 1405 1396 1408 1399 1411 1412 1416 1422 1424 1419 1419 1399 1392 1391 1385 1381 1381 1383 1385
1504 1497 1493 1493 1493 1493 1489 1487 1487 1481 1447 1428 1431 1436 1430 1428 1427 1425 1427 1429 1428 1425 1417 1404 1405 1399 1396 1401 1398 1405 1410 1410 1411 1416 1422 1413 1414 1394 1389 1379 1373 1371 1371 1372 1373
1501 1496 1493 1495 1495 1492 1488 1486 1483 1458 1440 1443 1441 1442 1438 1428 1424 1419 1419 1420 1422 1421 1417 1408 1400 1394 1393 1398 1395 1397 1407 1422 1430 1421 1412 1399 1403 1384 1375 1370 1369 1369 1369 1369 1374
1500 1497 1496 1496 1493 1489 1487 1485 1470 1445 1439 1438 1436 1434 1430 1424 1419 1416 1419 1418 1413 1410 1402 1400 1402 1392 1382 1377 1384 1384 1391 1398 1419 1410 1402 1385 1393 1376 1363 1364 1367 1367 1368 1370 1379
1497 1498 1496 1494 1491 1489 1489 1480 1466 1451 1450 1450 1445 1441 1428 1425 1419 1416 1414 1413 1418 1425 1427 1392 1382 1376 1380 1375 1374 1375 1382 1375 1384 1379 1383 1367 1364 1362 1357 1357 1361 1365 1365 1369 1378
1497 1497 1496 1494 1489 1489 1484 1472 1458 1460 1459 1454 1447 1441 1434 1424 1420 1414 1412 1428 1421 1422 1427 1409 1388 1369 1365 1377 1370 1364 1366 1389 1378 1395 1395 1377 1373 1371 1362 1360 1354 1360 1361 1370 1379
1496 1493 1494 1492 1490 1489 1480 1463 1460 1462 1459 1457 1448 1441 1434 1436 1428 1419 1417 1416 1426 1421 1417 1405 1402 1374 1366 1358 1359 1356 1360 1368 1374 1373 1385 1392 1378 1355 1358 1358 1352 1354 1357 1371 1378
1497 1487 1491 1491 1491 1482 1476 1469 1466 1456 1455 1451 1456 1442 1441 1436 1429 1414 1420 1410 1424 1423 1416 1399 1401 1387 1360 1346 1349 1347 1351 1361 1367 1379 1367 1366 1369 1350 1354 1356 1356 1355 1362 1373 1379
1497 1490 1489 1489 1488 1484 1476 1466 1460 1458 1452 1447 1448 1442 1436 1434 1435 1421 1424 1436 1431 1430 1426 1418 1398 1395 1370 1348 1344 1346 1348 1351 1363 1356 1373 1378 1369 1350 1352 1357 1361 1356 1365 1374 1380
1498 1486 1485 1487 1487 1486 1477 1468 1461 1457 1454 1448 1444 1440 1445 1431 1425 1437 1430 1432 1433 1431 1429 1427 1404 1387 1363 1347 1339 1343 1341 1342 1356 1363 1361 1367 1358 1356 1354 1357 1361 1362 1369 1376 1382
1499 1491 1497 1485 1485 1485 1479 1470 1463 1460 1458 1450 1440 1436 1435 1427 1417 1421 1425 1417 1423 1425 1426 1420 1392 1377 1383 1359 1335 1336 1334 1335 1347 1355 1358 1357 1359 1352 1352 1358 1365 1365 1371 1377 1382
1505 1504 1498 1491 1485 1483 1472 1468 1462 1459 1460 1449 1447 1438 1433 1429 1425 1422 1416 1412 1418 1415 1419 1411 1379 1382 1389 1377 1342 1332 1337 1336 1344 1351 1351 1352 1356 1347 1350 1360 1366 1369 1372 1377 1382
1507 1505 1503 1490 1482 1481 1473 1472 1468 1462 1455 1452 1447 1442 1435 1427 1424 1419 1417 1412 1410 1410 1409 1406 1390 1382 1391 1376 1344 1344 1328 1333 1342 1346 1350 1360 1353 1354 1361 1369 1378 1379 1375 1378 1383
Wind_Speed
12 14 15 16 16 16 17 19 19 20 20 21 23 25 25 26 27 20 23 18 16 16 15 9 13 18 17 22 27 20 16 18 24 22 19 24 15 19 5 12 18 18 18 19 21
14 14 14 15 17 18 19 19 20 20 19 18 20 22 23 24 25 26 26 26 25 22 19 18 20 20 25 24 28 25 18 25 23 20 19 24 25 23 20 15 20 21 24 23 16
15 14 15 15 15 16 18 19 20 19 20 20 18 19 19 18 20 21 23 26 33 31 29 23 24 23 28 30 29 30 25 25 27 30 32 29 32 33 24 21 28 22 23 24 24
17 17 16 16 16 17 17 18 20 21 20 19 19 17 15 9 9 1 7 18 16 19 27 29 31 33 29 27 32 29 37 35 35 38 37 32 41 34 31 27 30 26 26 26 27
18 18 18 19 19 18 19 18 19 20 21 21 21 20 16 12 22 19 21 11 11 9 21 32 38 38 33 31 33 32 32 39 41 42 44 41 33 37 33 31 34 34 29 28 29
17 18 18 20 20 20 20 20 20 19 18 19 21 21 13 24 12 15 16 17 13 12 16 26 37 40 40 37 34 40 40 40 43 43 41 37 37 36 35 35 38 37 31 34 33
18 19 20 21 21 21 20 19 19 20 19 20 20 18 21 27 18 18 18 19 20 20 19 21 27 32 35 33 41 43 36 35 36 38 34 30 32 36 40 37 38 39 35 35 31
16 17 19 21 22 23 23 22 20 20 20 19 19 13 23 17 22 25 23 23 23 24 24 19 17 31 36 30 32 32 31 29 34 34 36 31 35 31 38 38 38 35 30 36 26
20 21 22 21 19 18 19 20 21 20 15 14 10 11 22 7 14 13 20 21 20 24 26 24 18 23 24 23 22 26 28 38 32 30 28 30 37 31 36 35 36 40 42 26 30
22 23 23 23 24 25 26 19 14 11 6 3 9 10 17 15 8 5 5 11 17 20 24 31 19 18 20 21 27 31 32 30 33 30 28 32 35 33 38 27 33 37 39 35 31
23 24 25 26 26 26 25 19 4 9 13 15 15 15 25 16 16 19 14 14 14 18 24 30 18 27 45 33 30 30 26 31 32 28 27 29 30 31 20 29 33 37 41 34 33
23 24 25 26 27 21 11 12 11 10 15 26 30 32 30 26 27 26 22 22 20 20 22 25 33 46 25 31 31 31 31 32 29 27 21 22 23 26 25 25 32 36 36 35 36
25 25 26 27 20 10 14 12 8 11 12 30 30 27 24 17 23 23 23 26 24 22 25 30 44 25 33 30 31 32 31 29 29 24 20 19 27 28 25 31 35 39 41 41 39
26 27 26 27 11 15 9 10 10 12 7 20 10 6 10 8 13 12 16 20 25 29 25 28 33 34 32 36 34 31 29 27 23 20 18 20 22 23 21 23 25 28 31 30 29
29 28 27 17 12 10 11 11 9 5 6 5 9 8 5 9 10 5 8 14 19 23 19 34 29 36 36 40 30 35 25 24 23 21 22 23 16 18 21 22 25 24 29 29 28
31 26 18 8 4 8 11 9 7 5 8 2 5 4 9 11 14 12 10 13 13 18 28 32 35 27 39 34 30 27 27 24 18 17 19 21 19 24 19 20 18 13 16 22 23
31 15 12 6 8 12 10 8 5 7 3 5 10 13 12 16 15 17 13 11 14 14 21 29 30 29 30 32 36 29 22 15 16 17 20 18 17 21 18 17 18 16 19 3 4
22 10 8 6 11 11 7 3 7 13 13 16 16 15 17 18 19 15 12 14 20 20 20 22 26 33 27 33 37 30 29 15 26 11 16 23 16 16 14 9 11 16 13 13 8
13 5 2 9 9 5 3 5 6 16 17 13 17 16 19 8 10 10 15 16 4 8 6 19 28 27 35 25 26 38 28 32 21 22 11 14 10 14 17 14 13 13 11 10 12
11 6 3 9 10 3 4 7 10 8 11 15 18 13 14 17 12 11 11 2 8 7 12 16 24 26 27 26 32 35 27 25 21 23 14 14 9 10 5 9 7 13 11 15 17
10 4 2 6 6 7 5 8 14 16 15 10 19 18 17 11 13 13 4 5 6 13 11 21 11 17 28 32 32 28 25 29 21 17 14 12 10 3 6 10 7 13 13 18 22
7 4 5 7 4 4 6 15 19 17 16 14 14 16 15 15 15 19 11 4 1 10 11 16 5 10 19 30 31 31 28 32 15 22 17 9 6 6 5 3 4 3 15 20 23
11 5 1 5 5 7 15 17 13 12 13 14 7 16 16 14 8 8 12 13 12 5 5 8 8 9 12 18 27 33 31 26 28 15 20 10 2 10 7 8 1 5 18 21 24
9 4 2 4 7 9 14 15 14 15 15 11 18 11 13 17 2 4 7 5 11 8 14 12 10 14 6 14 23 30 36 31 29 16 17 18 11 10 9 10 9 9 17 22 24
5 6 5 6 9 13 15 14 15 12 10 20 11 7 12 17 17 3 5 15 8 13 5 5 17 21 12 23 25 24 27 25 30 21 18 16 15 13 13 11 5 11 19 21 23
7 7 12 20 11 13 10 11 15 19 11 12 12 17 15 15 15 17 13 13 7 5 3 9 20 20 15 22 25 30 30 28 24 25 16 9 15 11 1 11 15 8 17 19 22
6 7 6 12 7 7 10 14 19 20 10 14 15 16 16 15 22 26 22 21 17 15 14 6 9 8 15 20 18 17 30 26 25 25 20 12 8 7 12 13 9 9 8 15 17
Wind_Direction
340 337 337 336 332 327 319 315 310 307 305 298 289 283 279 277 276 274 265 247 231 239 244 223 207 213 215 226 226 232 253 251 252 257 263 263 247 250 235 280 291 293 285 281 283
338 335 331 330 329 329 327 327 325 322 316 309 301 296 290 286 283 278 261 244 244 235 230 217 219 213 221 223 224 226 240 241 256 264 274 282 287 285 270 243 265 275 283 278 299
332 329 325 324 321 320 321 322 322 320 321 324 322 313 303 301 303 276 252 246 245 243 238 232 233 223 230 234 225 233 240 252 259 264 275 282 275 279 272 274 279 286 290 295 292
329 327 324 320 316 313 312 314 313 314 319 321 318 320 316 308 256 33 280 235 236 251 234 228 230 232 232 235 233 242 239 247 261 268 278 276 279 283 269 275 277 283 283 289 290
335 330 327 323 318 313 309 307 305 308 312 314 312 314 321 256 246 284 288 279 249 260 233 223 223 226 234 234 243 239 244 253 260 266 267 271 272 279 272 269 275 283 281 281 281
343 337 333 328 325 320 314 309 306 304 299 296 298 302 291 267 261 257 264 260 255 254 242 231 233 232 242 241 241 246 253 255 258 264 264 267 271 266 262 262 267 275 271 276 275
343 337 333 330 326 323 319 314 309 300 292 286 283 282 270 257 263 266 266 263 252 249 251 241 239 240 243 250 248 257 259 261 256 256 261 267 271 263 264 266 268 273 270 272 268
340 333 326 323 322 322 321 317 310 300 292 283 276 264 260 264 270 268 263 262 253 246 241 241 250 240 242 256 254 251 254 259 253 253 249 248 260 264 272 271 265 272 265 278 265
340 335 332 328 324 320 315 315 311 301 288 277 260 226 264 268 246 272 251 252 254 246 238 239 243 244 236 239 251 244 243 241 254 247 251 244 252 257 259 267 273 266 265 272 267
340 337 335 331 329 329 323 324 320 291 329 265 243 238 255 257 260 262 262 269 261 242 235 220 226 235 231 222 227 229 237 246 257 260 250 251 254 260 260 268 268 270 275 263 263
341 338 336 332 333 330 326 338 275 245 225 253 285 231 286 271 272 267 264 274 250 234 225 213 214 220 220 219 237 243 248 249 250 253 242 253 264 274 275 259 263 270 273 270 270
341 337 335 335 336 337 5 329 326 299 296 275 269 263 260 268 271 258 253 247 239 238 221 220 217 223 225 230 229 243 249 251 262 268 274 274 274 272 270 277 278 275 278 276 272
341 336 333 334 340 3 322 314 309 312 278 282 266 262 252 242 253 250 238 228 238 242 230 222 229 222 227 232 234 231 236 247 254 266 273 279 271 267 264 266 265 264 264 262 260
339 332 328 329 327 319 327 321 322 315 281 266 195 216 185 224 251 232 235 241 232 236 241 237 238 235 225 230 230 237 231 244 259 270 261 254 269 263 269 271 272 274 271 267 262
341 332 324 323 314 330 322 319 311 289 283 102 121 135 225 222 314 169 239 218 245 243 224 241 228 230 237 226 225 241 237 240 238 250 263 256 260 272 266 266 263 261 257 260 257
344 338 341 12 306 323 316 309 287 240 246 100 161 354 243 241 248 260 217 218 258 242 253 244 248 238 234 241 227 236 235 242 245 253 248 245 256 268 272 274 281 306 265 255 247
347 356 16 11 323 319 310 292 246 250 8 44 2 305 272 287 280 266 255 253 244 213 234 243 247 247 241 224 237 220 218 224 228 229 244 248 247 260 274 281 287 289 278 144 83
352 18 329 340 327 322 301 262 251 344 19 342 335 313 294 277 263 263 253 258 250 247 269 227 230 233 233 229 215 217 208 211 218 217 236 224 244 256 266 288 269 283 228 136 162
5 343 276 337 339 335 249 254 325 358 349 332 317 296 273 310 323 282 255 271 299 357 286 250 240 228 227 232 228 213 210 217 248 217 251 245 203 243 249 252 234 237 195 183 153
349 319 256 336 323 311 283 303 336 358 326 313 305 293 317 321 295 271 285 178 313 297 260 278 260 230 222 223 237 227 205 210 225 239 220 236 254 263 197 311 197 196 176 138 154
341 302 336 344 313 292 302 328 336 336 325 322 309 309 311 334 299 298 235 218 211 293 267 277 303 247 233 213 216 208 210 212 218 227 229 245 256 70 265 245 260 197 150 151 156
319 292 349 348 283 288 304 331 303 300 315 315 342 306 310 307 290 287 217 335 177 321 299 272 258 267 235 212 219 212 208 201 214 208 236 211 229 154 88 270 254 302 129 155 155
314 296 311 346 350 326 313 319 333 324 310 314 288 307 310 318 309 339 360 352 337 356 305 4 237 262 206 224 202 211 212 199 221 222 206 228 246 163 145 94 142 202 143 156 154
310 308 32 337 349 320 321 313 328 339 321 316 306 332 311 302 127 259 347 348 295 277 273 280 262 254 235 226 196 210 200 204 201 213 192 212 182 145 136 92 77 129 148 156 160
317 23 356 304 328 315 300 293 315 331 326 304 295 293 279 314 313 311 264 276 281 246 244 262 240 238 256 284 211 209 205 196 192 208 221 181 232 168 143 85 55 143 161 159 162
342 347 328 298 297 309 329 315 332 330 333 313 328 320 316 306 311 309 318 301 279 255 287 282 256 238 250 289 286 199 213 201 195 206 212 204 204 219 170 86 50 148 168 170 171
333 315 330 295 299 314 311 325 309 317 314 290 305 317 311 311 316 304 293 283 279 280 300 283 300 246 245 249 238 221 198 194 198 201 210 190 108 66 57 45 36 348 183 182 176